www.pogodaiklimat.ru

Погода и климат >> Архив погоды >> Чехия >> Либерец


ПОГОДА в Либереце

  • Прогноз погоды в Либереце
  • Монитор погоды в Либереце

АРХИВ ПОГОДЫ в Либереце

Время (UTC), дата Ветер
(напр.,м/с)
 
Видим.   Явления Облачность Т
(С)
Тd
(С)
f
(%)
Тe
(С)
Тes
(С)
Комфортность P
(гПа)
Po
(гПа)
Тmin
(С)
Tmax
(С)
R
(мм)
R24
(мм)
S
(см)
01 10.06 Ю 3 35 км н/о +19.2 +12.7 66 +21 +21 комфорт 1017.6 971.4
02 10.06 ЮВ 3 35 км н/о +19.4 +12.5 64 +21 +21 комфорт 1017.0 970.9
03 10.06 ЮВ 3 35 км н/о +18.2 +12.8 71 +19 +19 1016.1 969.8
04 10.06 Ю 2 35 км н/о +18.1 +13.6 75 +19 +19 1016.0 969.7
05 10.06 ЮВ 3 35 км н/о +20.0 +14.6 71 +22 +22 комфорт 1015.1 969.2
06 10.06 ЮВ 3 30 км 5/0
[Ac trans Ci fib]
+20.9 +15.3 70 +24 +27 комфорт 1014.8 969.0 +17.7
07 10.06 ЮВ 4 30 км 4/0
[Ac trans Ci fib]
+22.0 +15.2 65 +26 +30 душно 1014.1 968.5
08 10.06 ЮВ 5 35 км 5/0
[Ac trans Ci fib]
+22.9 +15.4 63 +27 +32 душно 1014.1 968.7
09 10.06 ЮВ 5 35 км 6/0
[Ac trans Cs]
+23.6 +16.0 62 +27 +32 жарко 1013.4 968.1
10 10.06 Ю 6 35 км 4/1 1080 м
[Cu hum Ac trans Ci fib]
+24.7 +17.0 62 +28 +33 душно 1013.4 968.3
11 10.06 Ю 4 35 км 9/4 1140 м
[Cu med, cong Ac As Ci fib]
+24.2 +17.4 66 +28 +32 душно 1014.2 969.0
12 10.06 ЮВ 3 30 км 4/1 1170 м
[Cu hum Ac trans Ci fib]
+26.1 +17.2 58 +30 +41 душно 1012.3 967.5
13 10.06 ЮВ 3 35 км 4/1 1200 м
[Cu hum Ac trans Ci fib]
+26.9 +15.4 49 +30 +39 душно 1011.5 966.8
14 10.06 Ю 4 35 км 4/1 1410 м
[Cu hum Ac trans Ci fib]
+27.5 +17.7 55 +32 +38 очень
душно
1010.9 966.3
15 10.06 В 3 35 км 4/3 1410 м
[Cu hum Ci fib]
+27.5 +16.2 50 +31 +35 душно 1010.3 965.7
16 10.06 Ю 4 35 км н/о +27.1 +17.1 54 +31 +31 душно 1009.8 965.2
17 10.06 ЮВ 3 35 км н/о +27.0 +16.3 52 +30 +30 душно 1009.2 964.6
18 10.06 ЮВ 2 35 км 6/1 1470 м
[Cu med, cong Ac trans Ci fib]
+26.4 +16.1 53 +30 +30 душно 1009.4 964.7 +28.1
19 10.06 ЮВ 2 30 км 6/3 1500 м
[Cu med, cong Ac As Ci fib]
+24.7 +16.7 61 +28 +28 душно 1009.8 964.9
20 10.06 ЮВ 3 28 км 6/5 1380 м
[Cu med, cong Ac As Ci fib]
+24.2 +17.4 66 +28 +28 душно 1009.8 964.8
21 10.06 ЮВ 3 30 км н/о +23.3 +17.6 70 +29 +29 душно 1009.1 964.0
22 10.06 ЮВ 4 35 км н/о +23.6 +17.6 69 +28 +28 душно 1009.1 964.0
23 10.06 Ю 3 35 км ливневой дождь н/о +18.8 +17.4 92 +20 +20 1011.6 965.7
00 11.06 Ю 1 10 км {ливн. осадки, дождь} н/о +17.1 +17.1 100 +18 +18 1010.8 964.7 4
01 11.06 Ю 2 13 км н/о +17.7 +17.7 100 +18 +18 1009.9 963.9
02 11.06 Ю 4 17 км н/о +19.5 +18.2 92 +22 +22 комфорт 1009.4 963.7
03 11.06 ЮВ 3 21 км {дымка} н/о +20.0 +17.6 86 +23 +23 комфорт 1009.3 963.7
04 11.06 ЮВ 3 28 км н/о +20.7 +17.6 82 +25 +25 комфорт 1009.1 963.6
05 11.06 ЮВ 3 28 км н/о +21.6 +18.1 80 +26 +26 душно 1008.9 963.6
06 11.06 ЮВ 4 27 км 1/0
[Ci fib]
+23.4 +18.3 73 +29 +32 душно 1008.4 963.4 +16.1 4
07 11.06 ЮВ 5 28 км 1/0
[Ci fib]
+24.4 +18.1 68 +29 +33 душно 1008.7 963.8
08 11.06 ЮВ 4 28 км 1/1 900 м
[Cu hum]
+25.5 +17.8 62 +30 +37 душно 1009.1 964.3
09 11.06 ЮВ 6 30 км 3/1 1170 м
[Cu hum Ci fib]
+26.1 +17.4 59 +30 +35 душно 1009.1 964.4
10 11.06 ЮВ 5 28 км 3/3 1170 м
[Cu hum Ci fib]
+27.0 +18.1 58 +32 +38 очень
душно
1008.7 964.2
11 11.06 ЮВ 5 28 км 1/1 1230 м
[Cu hum Ci fib]
+28.3 +18.7 56 +33 +42 очень
душно
1008.4 964.1
12 11.06 ЮВ 5
{11}
28 км 1/1 1410 м
[Cu hum]
+28.8 +17.4 50 +33 +41 очень
душно
1008.3 964.0
13 11.06 ЮВ 5
{11}
28 км 1/1 1500 м
[Cu med, cong]
+29.4 +16.6 46 +33 +40 душно 1007.9 963.7
14 11.06 ЮВ 3 28 км 1/1 1500 м
[Cu med, cong Ci fib]
+29.8 +17.1 46 +33 +42 душно 1007.4 963.3
15 11.06 ЮВ 5
{11}
28 км 3/3 1470 м
[Cu hum]
+29.5 +17.9 50 +34 +37 очень
душно
1007.3 963.2
16 11.06 ЮВ 4 30 км н/о +29.3 +16.7 47 +33 +33 душно 1007.4 963.2
17 11.06 ЮВ 5 35 км н/о +28.5 +16.4 48 +32 +32 душно 1007.4 963.1
18 11.06 ЮВ 3-8
{11}
28 км 6/1 1000 м
[Cb calv Ci]
+27.4 +16.0 50 +31 +31 душно 1007.9 963.4 +30.0
19 11.06 ЮВ 3 28 км 4/0
[Ac As Ci fib]
+26.1 +15.8 53 +29 +29 жарко 1008.0 963.3
20 11.06 ЮВ 4 25 км 5/0
[Ac As Ci fib]
+25.3 +15.8 56 +29 +29 душно 1008.5 963.7
21 11.06 ЮВ 3 35 км н/о +24.5 +17.0 63 +28 +28 душно 1008.6 963.7
22 11.06 ЮВ 4 35 км н/о +24.1 +17.4 66 +28 +28 душно 1008.5 963.5
23 11.06 ЮВ 4 35 км н/о +23.3 +16.8 67 +28 +28 душно 1008.8 963.7
00 12.06 ЮВ 3 35 км н/о +22.5 +16.4 68 +27 +27 душно 1008.3 963.1
01 12.06 ЮВ 3 35 км н/о +22.2 +15.9 67 +26 +26 душно 1008.3 963.0
02 12.06 ЮВ 2 35 км н/о +21.5 +15.9 70 +25 +25 комфорт 1008.7 963.3
03 12.06 ЮВ 3 35 км н/о +21.0 +16.1 74 +25 +25 комфорт 1008.8 963.3
04 12.06 ЮВ 3 35 км н/о +20.9 +16.5 76 +25 +25 комфорт 1009.0 963.5
05 12.06 ЮВ 4 35 км н/о +22.6 +16.9 70 +27 +27 душно 1008.3 963.1
06 12.06 ЮВ 4 40 км 8/0
[Ci fib]
+24.0 +16.8 64 +28 +30 душно 1007.8 962.8 +20.6
07 12.06 ЮВ 4 40 км 3/0
[Ci fib]
+25.2 +16.2 57 +29 +34 душно 1007.8 963.0
08 12.06 ЮВ 5 40 км 1/0
[Ci fib]
+25.7 +15.6 54 +29 +35 душно 1007.3 962.6
09 12.06 ЮВ 5 40 км 1/0
[Ci fib]
+26.6 +15.0 49 +29 +37 жарко 1006.9 962.3
10 12.06 ЮВ 6-11
{11}
35 км 1/0
[Ci fib]
+27.8 +14.7 45 +30 +37 жарко 1006.6 962.2
11 12.06 ЮВ 6-11
{11}
35 км ясно +28.5 +14.2 42 +31 +38 душно 1006.2 961.9
12 12.06 ЮВ 6-11
{12}
35 км 1/1 1500 м
[Cu hum Ci fib]
+28.9 +14.3 41 +31 +37 жарко 1006.0 961.8
13 12.06 ЮВ 5-10
{12}
30 км 1/1 1500 м
[Cu hum]
+29.5 +15.1 42 +32 +39 душно 1005.6 961.5
14 12.06 ЮВ 6-11
{12}
30 км 3/3 1500 м
[Cu hum Ci fib]
+29.6 +15.2 42 +32 +35 душно 1005.0 960.9
15 12.06 ЮВ 6-11
{12}
30 км 3/3 1500 м
[Cu hum Cs]
+29.5 +14.9 41 +32 +34 душно 1005.1 961.0
16 12.06 ЮВ 5
{12}
35 км н/о +29.3 +15.6 43 +32 +32 душно 1004.9 960.8
17 12.06 ЮВ 5
{11}
35 км н/о +27.9 +15.0 45 +30 +30 жарко 1005.1 960.8
18 12.06 С 2
{13}
30 км гроза, ливневой дождь 9/6 700 м
[Cb calv Ac As Cs]
+21.7 +16.0 70 +25 +25 комфорт 1008.3 963.0 +30.1 0.0
19 12.06 СЗ 2 30 км гроза без осадков 9/8 1380 м
[Cb calv Ac As Ci fib]
+18.0 +16.5 91 +19 +19 1010.9 964.9
20 12.06 СЗ 2 14 км в посл. час гроза {ливн. осадки} 10/6 1500 м
[Sc diur, vesp Ac As Ci fib]
+17.0 +17.0 100 +17 +17 1011.7 965.5
21 12.06 ЮЗ 2 10 км {гроза, ливн. осадки} н/о +16.3 +16.3 100 +16 +16 1012.1 965.8
22 12.06 З 1 18 км н/о +16.5 +16.5 100 +17 +17 1012.1 965.8
23 12.06 СЗ 3 4800 м в посл. час дождь {ливн. осадки} н/о +16.1 +16.1 100 +16 +16 1012.8 966.4
00 13.06 СЗ 3 24 км {гроза, ливн. осадки} н/о +15.7 +15.6 99 +15 +15 1013.3 966.8 0.9
01 13.06 СЗ 2 17 км н/о +16.3 +15.9 97 +16 +16 1013.3 966.9
02 13.06 СЗ 2 30 км н/о +15.6 +14.1 91 +15 +15 1013.1 966.6
03 13.06 СЗ 4 12 км н/о +14.7 +14.7 100 +13 +13 1013.5 966.8
04 13.06 З 6 24 км н/о +14.0 +14.0 100 +12 +12 1015.0 968.1
05 13.06 СЗ 2 27 км в посл. час дождь {ливн. осадки} н/о +13.7 +12.4 92 +13 +13 1015.0 968.1
06 13.06 СЗ 2 10 км гроза, ливневой дождь 10/8 180 м
[Cb calv Ac As Ci fib]
+13.6 +12.3 92 +13 +13 1015.6 968.6 +13.4 4
07 13.06 СЗ 2 11 км в посл. час гроза {ливн. осадки} 10/9 180 м
[Cu Sc Ac As]
+14.1 +12.8 92 +14 +14 1015.8 968.9
08 13.06 СЗ 2 10 км 9/9 210 м
[Cu Sc Ci fib]
+14.7 +12.7 88 +14 +15 1015.8 969.0
09 13.06 СЗ 2 40 км {гроза, ливн. осадки} 8/6 600 м
[Cu Sc Ac trans Ci fib]
+17.4 +11.7 69 +18 +22 1015.1 968.7
10 13.06 СЗ 2 40 км 8/6 1000 м
[Cu Sc Ac trans Ci fib]
+18.6 +9.5 55 +20 +25 1014.9 968.7
11 13.06 СЗ 2 40 км 8/8 870 м
[Cu Sc Ac trans Ci fib]
+19.1 +10.2 56 +20 +24 1014.7 968.6
12 13.06 СЗ 2 40 км {гроза, ливн. осадки} 10/8 800 м
[Cu Sc Ac trans]
+19.6 +10.6 56 +21 +23 комфорт 1014.6 968.6 0.1
13 13.06 СЗ 2 40 км 8/8 800 м
[Cu Sc Ac trans Ci fib]
+20.0 +10.6 55 +22 +25 комфорт 1014.5 968.5
14 13.06 СЗ 2 40 км 6/6 1000 м
[Cu Sc Ci fib]
+21.6 +11.4 52 +24 +28 комфорт 1014.0 968.3
15 13.06 З 4 40 км 6/6 840 м
[Cu med, cong Ci fib]
+22.0 +13.6 59 +25 +27 комфорт 1013.5 967.9
16 13.06 СЗ 2 35 км н/о +20.9 +13.1 61 +24 +24 комфорт 1013.8 968.0
17 13.06 СЗ 2 35 км н/о +21.1 +13.4 61 +23 +23 комфорт 1013.7 968.0
18 13.06 С 1 40 км 3/3 800 м
[Sc diur, vesp Ci fib]
+20.2 +13.1 64 +23 +24 комфорт 1014.0 968.1 +22.4 0.1
19 13.06 З 2 40 км 1/1 700 м
[Cu med, cong]
+17.5 +12.5 72 +18 +18 1015.0 968.7
20 13.06 З 2 40 км 1/0
[Ac cuf]
+15.4 +12.7 84 +15 +15 1015.8 969.1
21 13.06 СЗ 1 20 км н/о +14.5 +12.7 89 +15 +15 1016.7 969.8
22 13.06 С 1 15 км слаб. дождь н/о +15.0 +13.7 92 +15 +15 1016.7 969.9
23 13.06 З 1 15 км в посл. час дождь {ливн. осадки} н/о +14.8 +13.7 93 +15 +15 1017.4 970.5
00 14.06 ЮВ 1 3000 м дымка {ливн. осадки, дождь} н/о +13.7 +12.6 93 +14 +14 1017.6 970.5 0.2
01 14.06 СЗ 1 2200 м в посл. час туман {дымка} н/о +13.3 +12.4 94 +13 +13 1017.7 970.6
02 14.06 ЮВ 1 2100 м дымка н/о +13.9 +13.2 96 +14 +14 1018.2 971.2
03 14.06 штиль 0 8000 м дымка н/о +12.4 +11.7 95 +12 +12 1018.9 971.6
04 14.06 Ю 1 5000 м в посл. час туман {дымка} н/о +12.0 +11.3 95 +12 +12 1019.7 972.2
05 14.06 ЮВ 1 16 км н/о +15.6 +13.1 85 +16 +16 1019.4 972.6
06 14.06 штиль 0 28 км ясно +18.1 +14.7 81 +18 +25 1019.3 972.9 +11.0 0.2
07 14.06 СЗ 2 28 км ясно +20.4 +16.8 80 +24 +32 комфорт 1019.0 973.0
08 14.06 З 2 30 км 1/0
[Ci fib]
+22.9 +15.9 65 +27 +39 душно 1018.6 973.0
09 14.06 СЗ 2 35 км 1/0
[Ci fib]
+24.3 +12.4 47 +26 +40 жарко 1018.5 973.0
10 14.06 З 1 40 км 1/1 1500 м
[Cu hum Ci fib]
+25.5 +9.5 36 +26 +44 жарко 1018.2 972.9
11 14.06 СЗ 1 40 км 4/1 1500 м
[Cu hum Ci]
+26.5 +12.4 42 +28 +45 жарко 1017.8 972.7
12 14.06 ЮВ 2 40 км 3/1 1500 м
[Cu hum Ci fib]
+27.6 +8.9 31 +28 +42 жарко 1017.0 972.0
13 14.06 Ю 2 40 км 1/1 1500 м
[Cu hum Ci fib]
+28.1 +9.9 32 +28 +41 жарко 1016.4 971.5
14 14.06 Ю 3 40 км 1/0
[Ci fib]
+28.3 +10.4 33 +29 +38 жарко 1016.0 971.2
15 14.06 Ю 2 40 км 1/1 1500 м
[Cu hum Ci fib]
+28.5 +10.1 32 +29 +36 жарко 1015.7 970.9
16 14.06 Ю 3 35 км н/о +27.9 +11.9 37 +29 +29 жарко 1015.3 970.5
17 14.06 СЗ 1 35 км н/о +26.9 +16.4 53 +30 +30 душно 1015.3 970.4
18 14.06 СЗ 1 30 км 5/0 2000 м
[Ac As Ci]
+24.5 +17.8 66 +29 +29 душно 1015.2 970.0 +29.3
19 14.06 штиль 0 28 км 3/0
[Ac As Ci fib]
+21.7 +17.1 75 +26 +26 душно 1015.6 970.0
20 14.06 Ю 2 28 км 4/0
[Ac As Ci]
+21.9 +16.0 69 +26 +26 душно 1014.7 969.1
21 14.06 ЮВ 3 30 км н/о +22.3 +17.2 73 +27 +27 душно 1014.4 968.9
22 14.06 ЮВ 4 30 км н/о +22.7 +17.7 73 +28 +28 душно 1014.4 969.0
23 14.06 ЮВ 2 28 км н/о +22.6 +18.0 75 +28 +28 душно 1014.0 968.6
00 15.06 Ю 3 21 км н/о +21.2 +18.4 84 +25 +25 комфорт 1013.4 967.8
01 15.06 ЮВ 3 23 км н/о +22.5 +17.9 75 +28 +28 душно 1012.5 967.1
02 15.06 ЮВ 3 19 км н/о +22.4 +18.3 78 +28 +28 душно 1011.7 966.4
03 15.06 ЮВ 3 21 км н/о +23.0 +17.9 73 +28 +28 душно 1011.0 965.8
04 15.06 ЮВ 4 25 км н/о +23.0 +17.3 70 +28 +28 душно 1010.8 965.6
05 15.06 ЮВ 4 27 км н/о +23.2 +17.3 69 +28 +28 душно 1010.3 965.1
06 15.06 ЮВ 5 27 км 6/0 2000 м
[Ac As Ci]
+24.3 +17.3 65 +28 +30 душно 1010.0 965.0 +19.0
07 15.06 ЮВ 5 27 км 4/0
[Ac As Ci fib]
+25.5 +17.5 61 +30 +33 душно 1009.9 965.1
08 15.06 ЮВ 4 27 км 6/0
[Ac As Ci fib]
+26.2 +17.1 57 +30 +35 душно 1009.6 964.9
09 15.06 ЮВ 5 28 км 4/0 2000 м
[Ac As Ci fib]
+27.7 +17.6 54 +32 +39 очень
душно
1009.8 965.3
10 15.06 ЮВ 4 28 км 3/0
[Ac trans Ci fib]
+28.7 +16.4 47 +32 +42 душно 1009.5 965.1
11 15.06 ЮВ 3 28 км 5/0
[Ac trans Ci]
+29.2 +18.0 51 +34 +46 очень
душно
1009.7 965.4
12 15.06 ЮЗ 3 28 км 6/1 1500 м
[Cu med, cong Ac trans Ci fib]
+29.8 +17.0 46 +33 +43 душно 1009.5 965.3
13 15.06 ЮЗ 3 28 км 6/1 1500 м
[Cu med, cong Ac As Ci fib]
+30.0 +18.2 49 +35 +43 очень
душно
1009.3 965.2
14 15.06 Ю 3 28 км 6/3 1500 м
[Cu med, cong Ac As Ci fib]
+30.3 +17.0 45 +34 +39 очень
душно
1009.2 965.1
15 15.06 З 3 27 км 6/5 1050 м
[Cb calv Ac As Ci fib]
+30.3 +15.6 41 +33 +36 душно 1008.5 964.4
16 15.06 СЗ 7 26 км н/о +25.1 +12.1 44 +27 +27 жарко 1010.7 965.7
17 15.06 З 1 35 км н/о +22.0 +13.9 60 +25 +25 комфорт 1011.9 966.4
18 15.06 ЮВ 1
{11}
30 км 9/5 1500 м
[Cu med, cong Ac As Ci fib]
+23.0 +13.3 54 +26 +26 жарко 1012.2 966.8 +31.1
19 15.06 З 1 28 км 9/4 1350 м
[Cu med, cong Ac As Ci fib]
+21.3 +14.8 66 +24 +24 комфорт 1012.4 966.8
20 15.06 С 1 25 км 9/1 1350 м
[Cu med, cong Ac As Cs]
+19.7 +15.4 76 +23 +23 комфорт 1013.1 967.2
21 15.06 СЗ 3 30 км н/о +19.0 +15.4 80 +21 +21 комфорт 1013.8 967.8
22 15.06 СЗ 2 35 км н/о +19.6 +15.1 75 +22 +22 комфорт 1014.5 968.5
23 15.06 ЮВ 2 35 км н/о +20.7 +13.8 65 +24 +24 комфорт 1015.5 969.6
00 16.06 В 2 35 км слаб. ливневой дождь н/о +18.9 +16.6 87 +21 +21 комфорт 1015.6 969.5 0.1
01 16.06 СЗ 1 13 км слаб. ливневой дождь н/о +17.2 +17.2 100 +18 +18 1015.1 968.8
02 16.06 СЗ 1 14 км слаб. ливневой дождь н/о +16.5 +16.5 100 +17 +17 1015.0 968.6
03 16.06 СЗ 2 30 км в посл. час дождь {ливн. осадки} н/о +16.7 +15.6 93 +17 +17 1015.6 969.2
04 16.06 СЗ 3 30 км н/о +16.5 +15.7 95 +16 +16 1016.4 969.9
05 16.06 СЗ 2 35 км н/о +16.6 +13.4 81 +17 +17 1017.1 970.5
06 16.06 СЗ 3 35 км 9/1 660 м
[Cu hum Ac As]
+16.7 +13.2 80 +16 +18 1017.8 971.2 +16.3 0.9
07 16.06 СЗ 2 35 км 9/8 750 м
[Cu Sc Ac As]
+17.2 +13.2 77 +18 +19 1018.2 971.7
08 16.06 ЮЗ 4 25 км слаб. ливневой дождь 10/9 750 м
[Cu Sc Ac As]
+16.1 +12.2 78 +15 +16 1020.2 973.4
09 16.06 З 4 27 км в посл. час ливневой дождь 6/5 660 м
[Cu med, cong Ac As]
+15.3 +12.2 82 +14 +18 1019.9 973.0
10 16.06 СЗ 4 30 км 9/4 420 м
[Cu med, cong Ac As]
+16.6 +12.0 74 +16 +19 1020.0 973.3
11 16.06 СЗ 3 35 км 9/1 720 м
[Cu med, cong Ac As]
+16.9 +10.3 65 +17 +22 1020.0 973.3
12 16.06 СЗ 4 35 км в посл. час ливневой дождь 9/6 930 м
[Cu Sc Ac As Ci fib]
+17.7 +12.2 70 +17 +20 1019.8 973.3 3
13 16.06 СЗ 2 35 км 9/0
[Ac As]
+18.1 +11.9 67 +19 +24 1020.0 973.5
14 16.06 СЗ 4 40 км 8/1 1020 м
[Cu hum Ac As Ci fib]
+18.7 +11.4 63 +19 +24 1019.9 973.5
15 16.06 СЗ 3 40 км 3/1 1230 м
[Cu hum Ac trans Ci fib]
+20.1 +10.3 53 +22 +27 комфорт 1019.5 973.3
16 16.06 СЗ 2 35 км н/о +20.2 +8.1 46 +22 +22 комфорт 1019.3 973.1
17 16.06 С 2 35 км н/о +20.0 +8.8 48 +22 +22 комфорт 1019.6 973.4
18 16.06 СЗ 1 40 км 1/0 2000 м
[Ac cuf]
+18.9 +9.1 53 +21 +21 комфорт 1020.3 973.9 +20.4 3
19 16.06 З 1 45 км 5/1 750 м
[Cu hum Ac und]
+16.5 +10.4 67 +17 +17 1020.8 974.0
20 16.06 СЗ 2 35 км 8/0
[Ac As]
+15.7 +11.2 75 +16 +16 1021.2 974.3
21 16.06 штиль 0 23 км 5/0 2000 м
[Ac As]
+14.3 +11.1 81 +14 +14 1022.0 974.8
22 16.06 СЗ 1 12 км н/о +13.3 +10.7 84 +13 +13 1022.8 975.4
23 16.06 З 1 30 км н/о +12.9 +10.1 83 +13 +13 1022.8 975.3
00 17.06 СЗ 1 35 км н/о +12.4 +9.4 82 +12 +12 1022.6 975.0

 

Местоположение метеостанции Либерец (Чехия): широта 50.77 долгота 15.02 высота над уровнем моря 401 м.

В архиве по умолчанию представлена погода в Либереце за последнюю неделю. Архивные данные за месяц целиком и за предыдущие месяцы, начиная с января 2011 года, Вы можете получить, выбрав интересующий диапазон дат из раскрывающегося списка и нажав кнопку "Ввод!".


*Определитесь, кто Вы:
робот инопланетянин человек

Внимание! Время в таблицах - всемирное. Для получения местного времени необходимо прибавить поправку, которая равна 1 ч.

Смотрите также архив погоды в соседних городах и на ближайших метеорологических станциях:

Погода в Гёрлице (Германия) (45 км)
Погода на Снежке (Польша) (50 км)
Погода на Снежке (Чехия) (51 км)
Погода в Пец-под-Снежкой (Чехия) (53 км)
Погода в Еленя-Гуре (Польша) (57 км)
Погода в Лихтенхайн-Миттельндорфе (Германия) (59 км)
Погода в Докшанах (Чехия) (69 км)
Погода в Усти-над-Лабем (Чехия) (70 км)
Погода в Прага аэропорту (Чехия) (80 км)
Погода в Милешовке (Чехия) (81 км)

Пояснения к столбцам:

Ветер - указаны скорость ветра в м/с - средняя за 10 мин, порывы в срок и между сроками (в фигурных скобках) и направление, откуда дует ветер: С - северный, СВ - северо-восточный, В - восточный, ЮВ - юго-восточный, Ю - южный, ЮЗ - юго-западный, З - западный, СЗ - северо-западный.
Видимость - горизонтальная дальность видимости в метрах или километрах. При видимости от 1 до 10 км при отсутствии осадков обычно наблюдается дымка, при ухудшении видимости до 1 км и менее - туман. В сухую погоду видимость может ухудшаться дымом, пылью или мглою.
Явления - указаны атмосферные явления, наблюдавшиеся в срок или в последний час перед сроком; фигурными скобками обозначены явления, наблюдавшиеся между сроками (за 1-3 часа до срока); квадратными скобками обозначены град или гололедные отложения с указанием их диаметра в мм.
Облачность - указаны через наклонную черту общая и нижняя облачность в баллах и высота нижней границы облаков в метрах; квадратными скобками обозначены формы облаков: Ci - перистые, Cs - перисто-слоистые, Cc - перисто-кучевые, Ac - высококучевые, As - высокослоистые, Sc - слоисто-кучевые, Ns - слоисто-дождевые, Cu - кучевые, Cb - кучево-дождевые. Подробнее классификацию облаков см. в Атласе облаков (PDF).
T - Температура воздуха - температура, измеренная на высоте 2 м над землей.
Td - Температура точки росы - температура, при понижении до которой содержащийся в воздухе водяной пар достигнет насыщения.
f - Относительная влажность воздуха - влажноcть воздуха, измеренная на высоте 2 м над землей.
Te - Эффективная температура - температура, которую ощущает одетый по сезону человек в тени. Характеристика душности погоды. При расчете учитывается влияние влажности воздуха и скорости ветра на теплоощущения человека.
Tes - Эффективная температура на солнце - температура, которую ощущает человек, с поправкой на солнечный нагрев. Характеристика знойности погоды. Зависит от высоты солнца над горизонтом, облачности и скорости ветра. Ночью, в пасмурную погоду, а также при ветре 12 м/с и более поправка равна нулю.
P - Атмосферное давление - приведенное к уровню моря атмосферное давление.
Po - Атмосферное давление - измеренное на уровне метеостанции атмосферное давление.
Tmin - Минимальная температура - минимум температуры воздуха на высоте 2 м над землей.
Tmax - Максимальная температура - максимум температуры воздуха на высоте 2 м над землей.
R - Количество осадков - Количество выпавших осадков за период времени, мм. При наведении курсора мыши на число - период времени, за который выпало указанное количество осадков.
R24 - Количество осадков - Количество выпавших осадков за 24 часа, мм.
S - Снежный покров - Высота снежного покрова, см. При наведении курсора мыши на число - состояние снежного покрова и степень покрытия местности в баллах.